Regional Weather Roundup
Issued by NWS Cleveland, OH

Home | Current Version | Previous Version | Graphics & Text | Print | Product List | Glossary On
Versions: 1 2 3 4 5 6 7 8 9 10 11 12 13 14 15 16 17 18 19 20 21 22 23 24 25 26 27 28 29 30 31 32 33 34 35 36 37 38 39 40 41 42 43 44 45 46 47 48 49 50
000
ASUS41 KCLE 201100
RWRCLE
OHIO REGIONAL WEATHER ROUNDUP
NATIONAL WEATHER SERVICE WILMINGTON, OH
600 AM EST SAT DEC 20 2014

NOTE: "FAIR" INDICATES FEW OR NO CLOUDS BELOW 12,000 FEET WITH NO
SIGNIFICANT WEATHER AND/OR OBSTRUCTIONS TO VISIBILITY.

OHZ001>008-015>018-024>027-034-035-043-044-201200-
   NORTHWEST OHIO

CITY           SKY/WX    TMP DP  RH WIND       PRES   REMARKS
DEFIANCE       CLOUDY    28  24  85 CALM      30.28S
FINDLAY        CLOUDY    30  23  75 SE3       30.26F
TOLEDO EXPRESS CLOUDY    29  21  72 CALM      30.28S
TOLEDO METCALF CLOUDY    30  22  72 CALM      30.30S
LIMA           CLOUDY    31  24  75 CALM      30.25F
$$

OHZ009>014-019>023-028>033-038-089-201200-
   NORTHEAST OHIO

CITY           SKY/WX    TMP DP  RH WIND       PRES   REMARKS
CLE-HOPKINS    CLOUDY    28  20  71 S5        30.32S WCI  23
CLE-LAKEFRONT  CLOUDY    30  21  69 SW6       30.29S WCI  24
CUY CO. ARPT   NOT AVBL
LORAIN-ELYRIA  CLOUDY    28  21  75 CALM      30.29F
ASHTABULA      CLOUDY    28  21  75 W7        30.29R WCI  21
AKRON-CANTON   CLOUDY    28  20  71 NE3       30.26F
WOOSTER        NOT AVBL
MANSFIELD      CLOUDY    28  22  78 CALM      30.24F
YOUNGSTOWN     CLOUDY    27  19  72 W5        30.26R WCI  22
$$

OHZ042-051>053-060>062-070>072-077>081-201200-
  SOUTHWEST OHIO

CITY           SKY/WX    TMP DP  RH WIND       PRES   REMARKS
CINC-COVINGTON CLOUDY    30  21  69 CALM      30.25R
CINC-LUNKEN    CLOUDY    30  25  81 CALM      30.29R
HAMILTON       CLOUDY    31  24  75 E5        30.28S WCI  26
DAYTON         NOT AVBL
WRIGHT-PAT AFB CLOUDY    28  23  80 NE3       30.25F
DAYTON GENERAL CLOUDY    30  24  78 NE3       30.24S
WILMINGTON     CLOUDY    28  22  78 E3        30.24S
$$

OHZ036-037-039>041-045>050-054>059-063>069-073>076-082>088-201200-
  CENTRAL AND SOUTHEAST OHIO

CITY           SKY/WX    TMP DP  RH WIND       PRES   REMARKS
COLUMBUS       CLOUDY    29  22  75 CALM      30.26S
OSU AIRPORT    CLOUDY    29  23  78 NE3       30.26S
BOLTON FIELD   NOT AVBL
RICKENBACK AFB NOT AVBL
NEWARK         CLOUDY    31  22  69 CALM      30.25S
MARION         CLOUDY    29  21  72 CALM      30.26F
LANCASTER      CLOUDY    33  25  72 CALM      30.26S
ZANESVILLE     CLOUDY    29  21  72 NE3       30.26S
NEW PHILLY     CLOUDY    30  22  72 CALM      30.28S
$$


USA.gov is the U.S. government's official web portal to all federal, state and local government web resources and services.